Zurück zum Katalog

THORAD AGENA D DEB

AktivSSO
NORAD 42494·DEBRIS·🇺🇸 United States

Gestartet Apr 8, 1970 von Vandenberg Space Force Base

Loading…

Nächste Überflüge (nächste 24 Stunden)

TLE

AktuellSource: Space-Track

Epoche: Sep 13, 2026, 10:50 UTC

1 42494U 70025QY  26256.45181615  .00000279  00000-0  41891-3 0  9993
2 42494  99.6928 336.1092 0097411 303.3399  55.8445 13.60342612623453

Verfolge THORAD AGENA D DEB in Echtzeit mit AllMySat

Download on the App Store